Location: Newark
(42.8481°N, 0.4872°E)
Time: 08:51:28
(UTC+00:00)

SR - Pass Details

Date: 03 November 2020
Orbit: 579 x 876 km, 66.7° (Epoch: 29 November)

Event Time Altitude Azimuth Distance (km) Brightness Sun altitude
Rises 07:50:38 0° 340° (NNW) 3,045 ? 11.5°
Reaches altitude 10° 07:53:38 10° 0° (N) 2,186 ? 11.9°
Maximum altitude 07:57:00 18° 43° (NE) 1,775 ? 12.4°
Drops below altitude 10° 08:00:32 10° 85° (E) 2,315 ? 13.0°
Sets 08:03:49 0° 104° (ESE) 3,300 ? 13.4°
